Hourly Data Report for October 09, 2016

All times are specified in Local Standard Time (LST). Add 1 hour to adjust for Daylight Saving Time where and when it is observed.

CLYDE RIVER A
NUNAVUT

70°29'09.000" N
68°31'01.000" W
26.50 m
2400804
71090
YCY

Download Data

Hourly Data (October 2016)
Hourly Data Report for October 9, 2016
Temp Definition
°C
Dew Point Temp Definition
°C
Rel Hum Definition
%
Wind Dir Definition
10's deg

Wind Spd Definition
km/h
Visibility Definition
km
Stn Press Definition
kPa
Hmdx Definition


Wind Chill Definition


Weather Definition


TIME
00:00 Legend Double Dagger -3.0 -4.9 87 29 21 16.1 100.62   -9 LegendNANA
01:00 Legend Double Dagger -4.7 -6.3 89 29 13 16.1 100.62   -10 LegendNANA
02:00 Legend Double Dagger -4.7 -6.2 89 25 15 16.1 100.64   -10 LegendNANA
03:00 Legend Double Dagger -4.0 -5.7 88 31 18 14.5 100.61   -10 LegendNANA
04:00 Legend Double Dagger -3.5 -4.2 95 30 21 2.0 100.63   -10 Snow
05:00 Legend Double Dagger -3.3 -4.1 94 29 21 3.6 100.64   -10 Freezing Rain,Snow
06:00 Legend Double Dagger -4.2 -4.8 96 29 21 16.1 100.64   -11 LegendNANA
07:00 Legend Double Dagger -4.9 -6.3 90 30 18 16.1 100.64   -11 LegendNANA
08:00 Legend Double Dagger -6.7 -8.1 90 30 15 16.1 100.65   -13 LegendNANA
09:00 Legend Double Dagger -6.5 -8.1 88 29 15 16.1 100.64   -12 LegendNANA
10:00 Legend Double Dagger -4.4 -5.8 90 27 8 16.1 100.64   -8 LegendNANA
11:00 Legend Double Dagger -5.6 -7.1 89 30 11 16.1 100.61   -10 LegendNANA
12:00 Legend Double Dagger -5.1 -6.8 88 29 9 16.1 100.61   -9 LegendNANA
13:00 Legend Double Dagger -5.6 -7.3 88 29 8 16.1 100.61   -9 LegendNANA
14:00 Legend Double Dagger -5.4 -7.2 88 32 8 16.1 100.62   -9 LegendNANA
15:00 Legend Double Dagger -4.3 -5.9 89 LegendMM 4 16.1 100.62   -6 LegendNANA
16:00 Legend Double Dagger -3.7 -5.5 88 29 5 16.1 100.61   -6 LegendNANA
17:00 Legend Double Dagger -4.7 -6.0 91 30 4 6.4 100.59   -6 Snow
18:00 Legend Double Dagger -5.0 -6.1 92 28 4 6.4 100.58   -7 Snow
19:00 Legend Double Dagger -4.9 -6.0 92 LegendMM 4 16.1 100.56   -7 LegendNANA
20:00 Legend Double Dagger -7.2 -8.4 91 29 5 16.1 100.54   -10 LegendNANA
21:00 Legend Double Dagger -8.6 -10.1 89 31 17 16.1 100.52   -15 LegendNANA
22:00 Legend Double Dagger -8.4 -9.9 89 29 9 16.1 100.48   -13 LegendNANA
23:00 Legend Double Dagger -7.8 -9.3 89 30 5 16.1 100.45   -10 LegendNANA

Notes on Data Quality.

Legend

  • E = Estimated
  • M = Missing
  • NA = Not Available
  • ‡ = Partner data that is not subject to review by the National Climate Archives
Date modified: